Total_Precipitation_Accumulation
1.18 1.33 1.27 1.09 0.97 0.93 0.83 0.77 0.84 0.92 0.97 1.00 0.94 0.87 0.81 0.82 0.93 1.09 1.11 1.18 1.26 1.31 1.35 1.34 1.31 1.33 1.37 1.30 1.38 1.51 1.68 1.82 1.68 1.56 1.47 1.42 1.35 1.27 1.13 0.94 0.81 0.72 0.64
1.49 1.69 1.62 1.25 1.03 0.93 0.76 0.67 0.75 0.89 0.96 0.98 0.91 0.84 0.79 0.84 0.97 1.08 1.20 1.40 1.52 1.47 1.38 1.30 1.21 1.26 1.34 1.34 1.42 1.43 1.49 1.71 1.70 1.65 1.63 1.65 1.57 1.39 1.29 1.16 0.93 0.81 0.76
1.30 1.54 1.42 1.11 0.88 0.78 0.73 0.70 0.81 0.95 0.99 0.96 0.94 0.95 1.02 1.09 1.20 1.30 1.35 1.48 1.50 1.41 1.37 1.30 1.22 1.24 1.25 1.33 1.41 1.43 1.42 1.48 1.63 1.64 1.65 1.74 1.72 1.52 1.35 1.21 1.09 1.11 1.01
0.85 1.09 1.06 0.89 0.80 0.71 0.71 0.74 0.77 0.83 0.89 0.93 1.08 1.26 1.36 1.41 1.42 1.46 1.45 1.41 1.37 1.27 1.19 1.12 1.14 1.24 1.28 1.29 1.25 1.28 1.32 1.40 1.49 1.53 1.58 1.70 1.76 1.69 1.48 1.34 1.32 1.27 1.17
0.75 0.94 0.90 0.82 0.79 0.72 0.67 0.70 0.78 0.87 0.92 1.06 1.21 1.32 1.32 1.33 1.38 1.46 1.45 1.38 1.30 1.19 1.06 0.88 0.84 1.01 1.14 1.18 1.10 1.14 1.19 1.26 1.29 1.37 1.46 1.59 1.69 1.79 1.60 1.40 1.33 1.38 1.33
0.68 0.90 0.90 0.83 0.76 0.69 0.69 0.78 0.92 0.99 1.07 1.20 1.26 1.26 1.21 0.97 0.94 1.02 1.07 1.09 1.09 1.04 0.92 0.85 0.82 0.81 0.82 0.84 0.86 0.90 0.97 1.06 1.20 1.37 1.47 1.52 1.54 1.64 1.73 1.67 1.59 1.54 1.51
0.68 0.85 0.93 0.90 0.88 0.85 0.80 0.90 1.02 1.09 1.17 1.24 1.23 1.18 1.13 1.07 0.93 0.82 0.82 0.87 0.90 0.89 0.88 0.89 0.73 0.63 0.70 0.70 0.74 0.73 0.70 0.73 0.85 1.07 1.28 1.34 1.47 1.52 1.75 1.78 1.79 1.88 1.85
0.71 0.87 0.93 0.94 0.97 1.05 1.03 1.06 1.18 1.28 1.29 1.31 1.27 1.21 1.22 1.18 1.03 0.87 0.77 0.72 0.82 0.87 0.87 0.89 0.87 0.82 0.81 0.85 0.85 0.78 0.69 0.65 0.66 0.71 0.90 1.15 1.36 1.59 1.67 1.73 1.81 1.88 1.87
0.78 0.92 1.01 1.09 1.20 1.23 1.23 1.32 1.46 1.54 1.47 1.47 1.48 1.43 1.43 1.42 1.22 0.93 0.80 0.78 0.92 0.95 0.95 0.93 0.91 0.90 0.90 0.78 0.77 0.77 0.76 0.75 0.63 0.62 0.68 0.87 1.05 1.15 1.37 1.58 1.71 1.66 1.58
1.09 1.14 1.30 1.47 1.64 1.72 1.73 1.73 1.75 1.81 1.72 1.67 1.58 1.52 1.48 1.51 1.43 1.06 0.90 0.91 1.08 1.11 1.15 1.11 0.96 0.86 0.80 0.67 0.67 0.78 0.75 0.72 0.76 0.69 0.61 0.64 0.76 0.90 0.99 1.10 1.34 1.49 1.39
1.33 1.40 1.60 1.89 2.05 1.99 1.95 1.88 1.84 1.86 1.86 1.83 1.72 1.66 1.65 1.62 1.54 1.18 1.04 1.07 1.22 1.32 1.29 1.22 1.14 0.97 0.75 0.66 0.63 0.69 0.72 0.74 0.84 0.89 0.87 0.83 0.92 1.03 1.00 0.96 1.08 1.25 1.29
1.50 1.67 1.87 2.08 2.06 1.96 2.09 2.01 1.97 2.01 2.00 1.94 1.91 1.85 1.80 1.76 1.61 1.29 1.03 1.07 1.22 1.40 1.45 1.39 1.28 1.05 0.80 0.70 0.64 0.62 0.59 0.58 0.65 0.78 0.82 0.80 0.85 0.95 1.02 1.00 1.03 1.08 1.13
1.66 1.80 1.92 2.01 2.16 2.30 2.34 2.25 2.16 2.10 2.08 1.95 1.89 1.83 1.78 1.80 1.75 1.31 1.04 1.08 1.16 1.27 1.46 1.48 1.24 1.02 0.87 0.72 0.68 0.67 0.59 0.54 0.64 0.70 0.70 0.70 0.70 0.81 1.01 1.14 1.18 1.19 1.16
1.52 1.55 1.69 1.88 1.99 2.09 2.31 2.36 2.29 2.17 2.12 2.08 1.96 1.85 1.80 1.82 1.80 1.45 1.16 1.12 1.16 1.18 1.28 1.35 1.23 1.07 0.94 0.83 0.77 0.74 0.69 0.70 0.76 0.76 0.77 0.80 0.82 0.89 0.99 1.09 1.19 1.23 1.20
1.52 1.48 1.49 1.55 1.69 1.79 1.92 2.04 2.05 2.05 1.85 1.76 1.66 1.60 1.60 1.65 1.61 1.36 1.19 1.19 1.32 1.39 1.36 1.39 1.39 1.26 1.13 1.02 0.98 1.00 1.00 0.95 0.88 0.88 0.91 0.93 0.92 0.92 0.98 1.05 1.13 1.16 1.10
1.48 1.42 1.42 1.45 1.55 1.64 1.69 1.65 1.48 1.41 1.23 1.11 1.10 1.07 1.09 1.13 1.22 1.09 0.98 1.07 1.24 1.30 1.24 1.27 1.37 1.36 1.28 1.19 1.13 1.12 1.11 1.05 0.99 1.00 0.98 0.97 0.95 0.92 0.95 1.00 1.04 1.05 1.02
1.50 1.37 1.29 1.26 1.32 1.37 1.47 1.60 1.66 1.44 1.21 1.03 0.92 0.80 0.79 0.87 0.96 0.96 0.92 0.96 1.06 1.10 1.07 1.13 1.22 1.27 1.22 1.18 1.12 1.10 1.06 1.08 1.09 1.04 1.01 1.01 1.00 0.95 0.93 0.96 0.97 1.02 1.01
1.40 1.29 1.20 1.20 1.25 1.30 1.38 1.49 1.61 1.61 1.36 1.03 0.89 0.77 0.67 0.67 0.70 0.73 0.75 0.80 0.89 0.93 0.94 1.01 1.06 1.10 1.11 1.12 1.11 1.11 1.07 1.09 1.07 1.06 1.01 1.00 1.00 0.95 0.95 0.96 0.93 0.95 1.00
1.22 1.14 1.08 1.13 1.16 1.15 1.20 1.27 1.35 1.41 1.32 1.15 0.97 0.78 0.64 0.54 0.56 0.60 0.60 0.67 0.82 0.87 0.87 0.91 0.92 0.94 0.97 1.01 1.02 1.06 1.06 1.02 1.01 1.05 1.01 0.97 0.99 1.00 0.99 0.99 0.99 1.00 1.00
1.12 0.95 0.88 0.94 0.98 0.99 1.06 1.12 1.16 1.22 1.21 1.15 1.03 0.79 0.59 0.53 0.61 0.67 0.67 0.76 0.86 0.86 0.82 0.86 0.82 0.81 0.86 0.92 0.97 1.03 1.02 1.04 1.06 1.03 1.01 0.99 0.98 0.98 0.96 0.96 1.00 1.02 1.02
1.04 0.88 0.66 0.63 0.73 0.80 0.91 1.00 1.04 1.05 1.08 1.06 0.91 0.65 0.46 0.43 0.55 0.70 0.80 0.84 0.84 0.83 0.78 0.74 0.70 0.72 0.77 0.83 0.88 0.91 0.96 1.02 1.01 1.00 1.04 1.00 0.96 0.96 0.95 0.96 0.96 0.97 0.99
0.94 0.86 0.70 0.61 0.64 0.69 0.77 0.88 0.90 0.87 0.87 0.86 0.77 0.57 0.42 0.39 0.52 0.65 0.72 0.72 0.71 0.73 0.70 0.66 0.64 0.69 0.72 0.74 0.80 0.86 0.90 0.93 0.95 0.97 0.99 0.99 0.98 0.96 0.96 1.00 1.00 0.99 0.99
0.89 0.80 0.69 0.63 0.64 0.63 0.67 0.77 0.79 0.76 0.73 0.69 0.63 0.56 0.47 0.49 0.57 0.65 0.67 0.66 0.66 0.64 0.63 0.62 0.60 0.59 0.64 0.68 0.70 0.76 0.82 0.83 0.84 0.87 0.93 0.97 0.97 0.98 1.02 1.03 0.99 0.95 0.95
0.81 0.77 0.65 0.60 0.62 0.67 0.68 0.70 0.66 0.63 0.61 0.58 0.54 0.53 0.52 0.56 0.59 0.60 0.61 0.61 0.60 0.56 0.54 0.55 0.56 0.56 0.59 0.64 0.64 0.64 0.67 0.69 0.69 0.73 0.78 0.84 0.87 0.93 1.00 1.03 0.99 0.96 1.01
0.78 0.79 0.69 0.60 0.58 0.61 0.62 0.64 0.62 0.61 0.56 0.51 0.50 0.50 0.52 0.54 0.55 0.58 0.58 0.55 0.51 0.50 0.47 0.48 0.54 0.55 0.51 0.51 0.52 0.52 0.56 0.54 0.53 0.60 0.69 0.78 0.80 0.87 0.98 1.02 1.02 1.01 1.08
0.71 0.73 0.67 0.58 0.53 0.54 0.55 0.62 0.64 0.59 0.54 0.48 0.47 0.50 0.47 0.44 0.44 0.46 0.45 0.43 0.43 0.43 0.43 0.45 0.48 0.49 0.47 0.45 0.44 0.45 0.43 0.40 0.41 0.50 0.55 0.63 0.73 0.80 0.88 0.94 0.93 1.00 1.08